Weather History for K3T5 - August, 2013

Change the Weather History Date:

Monday, August 19, 2013

  Actual Average (KAUS) Record (KAUS)
Temperature  
Mean Temperature 84 °F 84 °F  
Max Temperature 96 °F 96 °F 106 °F (1984)
Min Temperature 71 °F 71 °F 65 °F (2000)
Degree Days  
Heating Degree Days 0 0  
Month to date heating degree days 0  
Since 1 June heating degree days 0  
Since 1 July heating degree days 0  
Cooling Degree Days 18 19  
Month to date cooling degree days 361  
Year to date cooling degree days 1921  
Since 1 June cooling degree days 1414  
Growing Degree Days 34 (Base 50)    
Moisture  
Dew Point 69 °F    
Average Humidity 65    
Maximum Humidity 95    
Minimum Humidity 36    
Precipitation  
Precipitation 0.00 in 0.06 in 1.18 in (1951)
Month to date precipitation 1.06  
Year to date precipitation 21.74  
Snow  
Snow 0.00 in - - ()
Month to date snowfall  
Since 1 June snowfall  
Since 1 July snowfall  
Snow Depth -    
Sea Level Pressure  
Sea Level Pressure 29.98 in    
Wind  
Wind Speed 2 mph (SE)    
Max Wind Speed 9 mph    
Max Gust Speed -    
Visibility 9 miles    
Events      
T = Trace of Precipitation, MM = Missing Value Source: NWS Daily Summary

Daily Weather History Graph

Daily Weather History Graph

Search for Another Location

Airport or City:

Trip Planner

Search our weather history database for the weather conditions in past years. The results will help you decide how hot, cold, wet, or windy it might be!

Date:

Astronomy

Aug. 19, 2013 Rise Set
Actual Time 6:57 AM CDT 8:04 PM CDT
Civil Twilight 6:32 AM CDT 8:29 PM CDT
Nautical Twilight 6:03 AM CDT 8:58 PM CDT
Astronomical Twilight 5:32 AM CDT 9:29 PM CDT
Moon 6:56 PM CDT (8/19) 5:20 AM CDT (8/19)
Length of Visible Light 13h 56m
Length of Day
13h 06m
Waxing Gibbous, 97% of the Moon is Illuminated
Aug 19
Waxing Gibbous
Aug 20
Full
Aug 28
Last Quarter
Sep 5
New
Sep 12
First Quarter

Hourly Weather History & Observations

Time (CDT) Temp. Heat Index Dew Point Humidity Pressure Visibility Wind Dir Wind Speed Gust Speed Precip Events Conditions
12:15 AM 78.6 °F - 72.7 °F 82% 29.99 in 10.0 mi Calm Calm - N/A   Clear
12:35 AM 78.8 °F - 73.0 °F 82% 29.99 in 10.0 mi Calm Calm - N/A   Clear
12:55 AM 78.1 °F - 73.2 °F 85% 29.98 in 10.0 mi SSW 3.5 mph - N/A   Clear
1:15 AM 77.5 °F - 73.0 °F 86% 29.99 in 10.0 mi Calm Calm - N/A   Clear
1:35 AM 77.0 °F - 72.9 °F 87% 29.99 in 10.0 mi Calm Calm - N/A   Clear
1:55 AM 76.3 °F - 72.7 °F 89% 29.99 in 10.0 mi Calm Calm - N/A   Clear
2:15 AM 75.6 °F - 72.3 °F 90% 29.99 in 10.0 mi Calm Calm - N/A   Clear
2:35 AM 76.1 °F - 72.5 °F 89% 29.98 in 10.0 mi Calm Calm - N/A   Clear
2:55 AM 75.2 °F - 72.0 °F 90% 29.99 in 10.0 mi Calm Calm - N/A   Clear
3:15 AM 74.1 °F - 71.8 °F 92% 29.99 in 10.0 mi Calm Calm - N/A   Unknown
3:35 AM 73.6 °F - 71.6 °F 93% 29.99 in 10.0 mi Calm Calm - N/A   Clear
3:55 AM 73.8 °F - 71.6 °F 93% 29.98 in 10.0 mi Calm Calm - N/A   Clear
4:15 AM 73.4 °F - 71.6 °F 94% 29.99 in 7.0 mi Calm Calm - N/A   Clear
4:35 AM 73.6 °F - 71.6 °F 93% 29.99 in 10.0 mi Calm Calm - N/A   Clear
4:55 AM 73.0 °F - 71.2 °F 94% 29.99 in 10.0 mi Calm Calm - N/A   Clear
5:15 AM 72.9 °F - 71.2 °F 95% 29.99 in 7.0 mi Calm Calm - N/A   Clear
5:35 AM 72.5 °F - 70.7 °F 94% 29.99 in 7.0 mi Calm Calm - N/A   Clear
5:55 AM 72.5 °F - 70.7 °F 94% 29.99 in 7.0 mi Calm Calm - N/A   Clear
6:15 AM 72.1 °F - 70.3 °F 94% 30.00 in 7.0 mi Calm Calm - N/A   Clear
6:35 AM 72.1 °F - 70.7 °F 95% 30.00 in 7.0 mi Calm Calm - N/A   Clear
6:55 AM 71.8 °F - 70.2 °F 95% 30.00 in 7.0 mi Calm Calm - N/A   Clear
7:15 AM 71.8 °F - 70.2 °F 95% 30.01 in 7.0 mi Calm Calm - N/A   Clear
7:35 AM 72.5 °F - 70.7 °F 94% 30.01 in 7.0 mi Calm Calm - N/A   Clear
7:55 AM 73.6 °F - 71.1 °F 92% 30.01 in 7.0 mi Calm Calm - N/A   Clear
8:15 AM 74.8 °F - 72.5 °F 92% 30.02 in 7.0 mi Calm Calm - N/A   Clear
8:35 AM 77.0 °F - 73.4 °F 89% 30.03 in 7.0 mi Calm Calm - N/A   Clear
8:55 AM 78.6 °F - 75.0 °F 89% 30.03 in 7.0 mi Calm Calm - N/A   Clear
9:15 AM 80.1 °F 85.2 °F 75.4 °F 86% 30.04 in 10.0 mi Calm Calm - N/A   Clear
9:35 AM 81.9 °F 89.2 °F 76.1 °F 83% 30.04 in 10.0 mi Calm Calm - N/A   Clear
9:55 AM 84.0 °F 90.5 °F 73.4 °F 70% 30.04 in 10.0 mi Calm Calm - N/A   Clear
10:15 AM 85.1 °F 91.1 °F 72.3 °F 65% 30.05 in 10.0 mi Calm Calm - N/A   Clear
10:35 AM 86.5 °F 94.2 °F 73.4 °F 65% 30.05 in 10.0 mi ESE 4.6 mph - N/A   Clear
10:55 AM 87.6 °F 93.9 °F 71.6 °F 59% 30.05 in 10.0 mi East 9.2 mph - N/A   Clear
11:15 AM 88.2 °F 95.0 °F 72.3 °F 59% 30.05 in 10.0 mi SE 3.5 mph - N/A   Clear
11:35 AM 88.5 °F 95.3 °F 72.0 °F 58% 30.05 in 10.0 mi South 4.6 mph - N/A   Clear
11:55 AM 89.6 °F 95.7 °F 70.9 °F 54% 30.05 in 10.0 mi East 3.5 mph - N/A   Clear
12:15 PM 90.1 °F 95.8 °F 70.5 °F 52% 30.04 in 10.0 mi ESE 6.9 mph - N/A   Clear
12:35 PM 91.4 °F 96.3 °F 69.4 °F 48% 30.03 in 10.0 mi SSE 4.6 mph - N/A   Clear
12:55 PM 91.9 °F 95.0 °F 66.7 °F 43% 30.02 in 10.0 mi SSE 3.5 mph - N/A   Clear
1:15 PM 91.8 °F 95.1 °F 67.1 °F 44% 30.01 in 10.0 mi Calm Calm - N/A   Clear
1:35 PM 93.4 °F 97.0 °F 67.5 °F 42% 30.01 in 10.0 mi East 6.9 mph - N/A   Clear
1:55 PM 93.2 °F 97.7 °F 68.2 °F 44% 30.00 in 10.0 mi SE 5.8 mph - N/A   Clear
2:15 PM 93.9 °F 99.1 °F 69.3 °F 44% 29.99 in 10.0 mi SE 4.6 mph - N/A   Clear
2:35 PM 94.1 °F 97.3 °F 66.6 °F 40% 29.99 in 10.0 mi Calm Calm - N/A   Clear
2:55 PM 93.9 °F 97.0 °F 66.4 °F 40% 29.98 in 10.0 mi SE 3.5 mph - N/A   Clear
3:15 PM 95.2 °F 99.3 °F 67.3 °F 40% 29.96 in 10.0 mi ESE 6.9 mph - N/A   Clear
3:35 PM 94.8 °F 98.1 °F 66.0 °F 39% 29.95 in 10.0 mi Calm Calm - N/A   Clear
3:55 PM 95.4 °F 98.6 °F 66.2 °F 38% 29.94 in 10.0 mi East 5.8 mph - N/A   Scattered Clouds
4:15 PM 95.2 °F 97.3 °F 64.6 °F 36% 29.93 in 10.0 mi SSW 3.5 mph - N/A   Clear
4:35 PM 95.5 °F 99.4 °F 67.1 °F 39% 29.93 in 10.0 mi Calm Calm - N/A   Clear
4:55 PM 95.9 °F 98.5 °F 65.1 °F 36% 29.92 in 10.0 mi ENE 4.6 mph - N/A   Clear
5:15 PM 96.1 °F 99.9 °F 66.6 °F 38% 29.92 in 10.0 mi Calm Calm - N/A   Clear
5:35 PM 96.1 °F 99.3 °F 66.0 °F 37% 29.91 in 10.0 mi SE 5.8 mph - N/A   Scattered Clouds
5:55 PM 96.4 °F 100.0 °F 66.0 °F 37% 29.91 in 10.0 mi East 5.8 mph - N/A   Clear
6:15 PM 96.1 °F 98.8 °F 64.8 °F 36% 29.91 in 10.0 mi ESE 5.8 mph - N/A   Clear
6:35 PM 96.1 °F 98.8 °F 65.1 °F 36% 29.90 in 10.0 mi ESE 3.5 mph - N/A   Clear
6:55 PM 95.2 °F 97.3 °F 64.6 °F 36% 29.90 in 10.0 mi SE 4.6 mph - N/A   Clear
7:15 PM 94.6 °F 96.8 °F 64.4 °F 37% 29.90 in 10.0 mi SE 3.5 mph - N/A   Clear
7:35 PM 94.1 °F 96.4 °F 65.1 °F 38% 29.90 in 10.0 mi SE 4.6 mph - N/A   Clear
7:55 PM 92.1 °F 94.4 °F 65.3 °F 41% 29.91 in 10.0 mi SE 3.5 mph - N/A   Clear
8:15 PM 90.5 °F 92.5 °F 65.1 °F 43% 29.91 in 10.0 mi Calm Calm - N/A   Clear
8:35 PM 89.2 °F 91.6 °F 65.8 °F 46% 29.91 in 10.0 mi Calm Calm - N/A   Scattered Clouds
8:55 PM 88.0 °F 90.3 °F 66.2 °F 48% 29.92 in 10.0 mi SE 8.1 mph - N/A   Scattered Clouds
9:15 PM 87.1 °F 89.9 °F 66.7 °F 51% 29.93 in 10.0 mi SE 5.8 mph - N/A   Clear
9:35 PM 86.5 °F 89.3 °F 67.3 °F 52% 29.93 in 10.0 mi SE 3.5 mph - N/A   Clear
9:55 PM 84.9 °F 87.9 °F 67.8 °F 56% 29.95 in 10.0 mi SSE 3.5 mph - N/A   Clear
10:15 PM 84.4 °F 87.3 °F 67.6 °F 57% 29.95 in 7.0 mi Calm Calm - N/A   Clear
10:35 PM 83.8 °F 86.5 °F 67.3 °F 57% 29.96 in 10.0 mi SE 3.5 mph - N/A   Clear
10:55 PM 82.4 °F 85.0 °F 67.5 °F 60% 29.96 in 10.0 mi SSE 4.6 mph - N/A   Clear
11:15 PM 81.7 °F 84.5 °F 67.8 °F 63% 29.96 in 10.0 mi South 4.6 mph - N/A   Clear
11:35 PM 80.8 °F 83.5 °F 68.2 °F 65% 29.97 in 10.0 mi South 4.6 mph - N/A   Clear
11:55 PM 80.1 °F 82.7 °F 68.2 °F 67% 29.97 in 10.0 mi South 3.5 mph - N/A   Clear